Time,TemperatureF,DewpointF,PressureIn,WindDirection,WindDirectionDegrees,WindSpeedMPH,WindSpeedGustMPH,Humidity,HourlyPrecipIn,Conditions,Clouds,dailyrainin,SoftwareType,DateUTC
2013-01-23 00:01:00,53.2,39.7,30.29,ENE,60,2.0,3.0,60,0.00,,,0.00,Wunderground v.1.15,2013-01-23 05:01:00,
2013-01-23 00:03:00,53.2,39.7,30.29,ENE,65,2.0,4.0,60,0.00,,,0.00,Wunderground v.1.15,2013-01-23 05:03:00,
2013-01-23 00:08:00,53.1,40.0,30.29,ENE,57,2.0,4.0,61,0.00,,,0.00,Wunderground v.1.15,2013-01-23 05:08:00,
2013-01-23 00:09:00,53.0,39.9,30.29,NE,47,2.0,4.0,61,0.00,,,0.00,Wunderground v.1.15,2013-01-23 05:09:00,
2013-01-23 00:11:00,53.0,39.9,30.29,NE,36,2.0,3.0,61,0.00,,,0.00,Wunderground v.1.15,2013-01-23 05:11:00,
2013-01-23 00:12:00,52.9,39.8,30.29,NE,41,3.0,3.0,61,0.00,,,0.00,Wunderground v.1.15,2013-01-23 05:12:00,
2013-01-23 00:13:00,52.9,39.8,30.29,NE,54,4.0,4.0,61,0.00,,,0.00,Wunderground v.1.15,2013-01-23 05:13:00,
2013-01-23 00:17:00,52.8,40.1,30.29,NE,49,3.0,4.0,62,0.00,,,0.00,Wunderground v.1.15,2013-01-23 05:17:00,
2013-01-23 00:19:00,52.8,40.1,30.29,ENE,68,2.0,4.0,62,0.00,,,0.00,Wunderground v.1.15,2013-01-23 05:19:00,
2013-01-23 00:24:00,52.6,39.9,30.29,NE,41,3.0,4.0,62,0.00,,,0.00,Wunderground v.1.15,2013-01-23 05:24:00,
2013-01-23 00:27:00,52.6,39.9,30.29,ENE,60,3.0,4.0,62,0.00,,,0.00,Wunderground v.1.15,2013-01-23 05:27:00,
2013-01-23 00:29:00,52.5,40.3,30.29,NE,48,4.0,4.0,63,0.00,,,0.00,Wunderground v.1.15,2013-01-23 05:29:00,
2013-01-23 00:31:00,52.5,40.3,30.29,NE,52,4.0,4.0,63,0.00,,,0.00,Wunderground v.1.15,2013-01-23 05:31:00,
2013-01-23 00:33:00,52.5,40.3,30.29,NNE,32,3.0,5.0,63,0.00,,,0.00,Wunderground v.1.15,2013-01-23 05:33:00,
2013-01-23 00:34:00,52.5,40.3,30.29,NNE,13,2.0,5.0,63,0.00,,,0.00,Wunderground v.1.15,2013-01-23 05:34:00,
2013-01-23 00:36:00,52.5,40.3,30.29,NNE,32,4.0,5.0,63,0.00,,,0.00,Wunderground v.1.15,2013-01-23 05:36:00,
2013-01-23 00:38:00,52.5,40.3,30.29,NE,53,4.0,5.0,63,0.00,,,0.00,Wunderground v.1.15,2013-01-23 05:38:00,
2013-01-23 00:39:00,52.5,40.3,30.29,NE,41,2.0,5.0,63,0.00,,,0.00,Wunderground v.1.15,2013-01-23 05:39:00,
2013-01-23 00:40:00,52.5,40.3,30.29,NE,41,4.0,4.0,63,0.00,,,0.00,Wunderground v.1.15,2013-01-23 05:40:00,
2013-01-23 00:44:00,52.5,40.3,30.29,NE,39,2.0,4.0,63,0.00,,,0.00,Wunderground v.1.15,2013-01-23 05:44:00,
2013-01-23 00:45:00,52.4,40.2,30.29,NNE,29,2.0,4.0,63,0.00,,,0.00,Wunderground v.1.15,2013-01-23 05:45:00,
2013-01-23 00:48:00,52.4,40.2,30.28,NE,41,2.0,4.0,63,0.00,,,0.00,Wunderground v.1.15,2013-01-23 05:48:00,
2013-01-23 00:50:00,52.4,40.2,30.28,ENE,68,3.0,3.0,63,0.00,,,0.00,Wunderground v.1.15,2013-01-23 05:50:00,
2013-01-23 00:51:00,52.4,40.2,30.28,ENE,66,4.0,4.0,63,0.00,,,0.00,Wunderground v.1.15,2013-01-23 05:51:00,
2013-01-23 00:53:00,52.3,40.5,30.28,ENE,63,2.0,4.0,64,0.00,,,0.00,Wunderground v.1.15,2013-01-23 05:53:00,
2013-01-23 00:56:00,52.4,40.6,30.28,NE,38,3.0,4.0,64,0.00,,,0.00,Wunderground v.1.15,2013-01-23 05:56:00,
2013-01-23 00:57:00,52.4,40.6,30.29,NE,51,2.0,4.0,64,0.00,,,0.00,Wunderground v.1.15,2013-01-23 05:57:00,
2013-01-23 01:00:00,52.4,40.6,30.29,NE,37,4.0,4.0,64,0.00,,,0.00,Wunderground v.1.15,2013-01-23 06:00:00,
2013-01-23 01:02:00,52.4,40.6,30.29,NE,51,3.0,4.0,64,0.00,,,0.00,Wunderground v.1.15,2013-01-23 06:02:00,
2013-01-23 01:03:00,52.4,40.6,30.29,ENE,70,2.0,4.0,64,0.00,,,0.00,Wunderground v.1.15,2013-01-23 06:03:00,
2013-01-23 01:04:00,52.4,40.6,30.29,ENE,63,3.0,4.0,64,0.00,,,0.00,Wunderground v.1.15,2013-01-23 06:04:00,
2013-01-23 01:08:00,52.4,40.6,30.29,NE,37,3.0,4.0,64,0.00,,,0.00,Wunderground v.1.15,2013-01-23 06:08:00,
2013-01-23 01:09:00,52.4,40.6,30.29,NNE,33,3.0,4.0,64,0.00,,,0.00,Wunderground v.1.15,2013-01-23 06:09:00,
2013-01-23 01:10:00,52.4,40.6,30.29,NE,46,4.0,4.0,64,0.00,,,0.00,Wunderground v.1.15,2013-01-23 06:10:00,
2013-01-23 01:13:00,52.4,41.0,30.29,NE,47,4.0,4.0,65,0.00,,,0.00,Wunderground v.1.15,2013-01-23 06:13:00,
2013-01-23 01:16:00,52.2,40.8,30.29,NNE,26,2.0,4.0,65,0.00,,,0.00,Wunderground v.1.15,2013-01-23 06:16:00,
2013-01-23 01:18:00,52.2,40.8,30.29,NNE,33,1.0,4.0,65,0.00,,,0.00,Wunderground v.1.15,2013-01-23 06:18:00,
2013-01-23 01:21:00,52.2,40.8,30.29,NE,46,4.0,4.0,65,0.00,,,0.00,Wunderground v.1.15,2013-01-23 06:21:00,
2013-01-23 01:23:00,52.2,41.2,30.29,NNE,33,3.0,5.0,66,0.00,,,0.00,Wunderground v.1.15,2013-01-23 06:23:00,
2013-01-23 01:27:00,52.1,41.1,30.29,NE,34,2.0,5.0,66,0.00,,,0.00,Wunderground v.1.15,2013-01-23 06:27:00,
2013-01-23 01:29:00,52.0,41.0,30.29,NE,41,1.0,3.0,66,0.00,,,0.00,Wunderground v.1.15,2013-01-23 06:29:00,
2013-01-23 01:32:00,51.9,40.9,30.30,NE,34,3.0,3.0,66,0.00,,,0.00,Wunderground v.1.15,2013-01-23 06:32:00,
2013-01-23 01:33:00,51.9,41.3,30.30,NNE,32,2.0,3.0,67,0.00,,,0.00,Wunderground v.1.15,2013-01-23 06:33:00,
2013-01-23 01:35:00,51.8,41.2,30.30,NNE,27,3.0,3.0,67,0.00,,,0.00,Wunderground v.1.15,2013-01-23 06:35:00,
2013-01-23 01:36:00,51.8,41.2,30.29,NE,42,1.0,3.0,67,0.00,,,0.00,Wunderground v.1.15,2013-01-23 06:36:00,
2013-01-23 01:40:00,51.6,41.4,30.30,NE,37,3.0,3.0,68,0.00,,,0.00,Wunderground v.1.15,2013-01-23 06:40:00,
2013-01-23 01:42:00,51.4,41.2,30.29,NE,47,2.0,3.0,68,0.00,,,0.00,Wunderground v.1.15,2013-01-23 06:42:00,
2013-01-23 01:43:00,51.4,41.2,30.29,NE,55,2.0,3.0,68,0.00,,,0.00,Wunderground v.1.15,2013-01-23 06:43:00,
2013-01-23 01:47:00,51.2,41.4,30.29,NE,41,2.0,3.0,69,0.00,,,0.00,Wunderground v.1.15,2013-01-23 06:47:00,
2013-01-23 01:48:00,51.2,41.4,30.29,North,8,2.0,3.0,69,0.00,,,0.00,Wunderground v.1.15,2013-01-23 06:48:00,
2013-01-23 01:49:00,51.1,41.3,30.29,NE,39,0.0,3.0,69,0.00,,,0.00,Wunderground v.1.15,2013-01-23 06:49:00,
2013-01-23 01:53:00,50.9,41.5,30.29,NNE,15,3.0,3.0,70,0.00,,,0.00,Wunderground v.1.15,2013-01-23 06:53:00,
2013-01-23 01:55:00,50.8,41.4,30.29,NNE,19,2.0,3.0,70,0.00,,,0.00,Wunderground v.1.15,2013-01-23 06:55:00,
2013-01-23 01:58:00,50.7,41.3,30.29,NNE,31,2.0,3.0,70,0.00,,,0.00,Wunderground v.1.15,2013-01-23 06:58:00,
2013-01-23 01:59:00,50.6,41.2,30.29,NNE,20,2.0,3.0,70,0.00,,,0.00,Wunderground v.1.15,2013-01-23 06:59:00,
2013-01-23 02:00:00,50.6,41.2,30.29,NNE,13,1.0,2.0,70,0.00,,,0.00,Wunderground v.1.15,2013-01-23 07:00:00,
2013-01-23 02:01:00,50.6,41.2,30.29,NNE,21,2.0,2.0,70,0.00,,,0.00,Wunderground v.1.15,2013-01-23 07:01:00,
2013-01-23 02:03:00,50.4,41.3,30.29,NE,38,2.0,2.0,71,0.00,,,0.00,Wunderground v.1.15,2013-01-23 07:03:00,
2013-01-23 02:04:00,50.4,41.3,30.29,NE,37,2.0,3.0,71,0.00,,,0.00,Wunderground v.1.15,2013-01-23 07:04:00,
2013-01-23 02:05:00,50.4,41.3,30.29,NE,49,2.0,3.0,71,0.00,,,0.00,Wunderground v.1.15,2013-01-23 07:05:00,
2013-01-23 02:06:00,50.4,41.3,30.29,NE,49,1.0,3.0,71,0.00,,,0.00,Wunderground v.1.15,2013-01-23 07:06:00,
2013-01-23 02:08:00,50.3,41.3,30.28,NE,47,3.0,4.0,71,0.00,,,0.00,Wunderground v.1.15,2013-01-23 07:08:00,
2013-01-23 02:09:00,50.3,41.3,30.28,NE,35,3.0,4.0,71,0.00,,,0.00,Wunderground v.1.15,2013-01-23 07:09:00,
2013-01-23 02:10:00,50.2,41.2,30.28,NE,56,2.0,3.0,71,0.00,,,0.00,Wunderground v.1.15,2013-01-23 07:10:00,
2013-01-23 02:11:00,50.2,41.2,30.28,NE,41,2.0,3.0,71,0.00,,,0.00,Wunderground v.1.15,2013-01-23 07:11:00,
2013-01-23 02:13:00,50.1,41.4,30.29,NE,49,0.0,3.0,72,0.00,,,0.00,Wunderground v.1.15,2013-01-23 07:13:00,
2013-01-23 02:14:00,50.1,41.4,30.29,NE,49,2.0,3.0,72,0.00,,,0.00,Wunderground v.1.15,2013-01-23 07:14:00,
2013-01-23 02:15:00,50.1,41.4,30.29,North,9,1.0,3.0,72,0.00,,,0.00,Wunderground v.1.15,2013-01-23 07:15:00,
2013-01-23 02:17:00,50.0,41.3,30.29,NE,51,3.0,3.0,72,0.00,,,0.00,Wunderground v.1.15,2013-01-23 07:17:00,
2013-01-23 02:18:00,50.0,41.3,30.28,NNE,25,1.0,4.0,72,0.00,,,0.00,Wunderground v.1.15,2013-01-23 07:18:00,
2013-01-23 02:19:00,50.0,41.3,30.28,NNE,31,3.0,4.0,72,0.00,,,0.00,Wunderground v.1.15,2013-01-23 07:19:00,
2013-01-23 02:20:00,50.0,41.3,30.28,NE,44,3.0,3.0,72,0.00,,,0.00,Wunderground v.1.15,2013-01-23 07:20:00,
2013-01-23 02:22:00,50.0,41.3,30.28,North,4,2.0,4.0,72,0.00,,,0.00,Wunderground v.1.15,2013-01-23 07:22:00,
2013-01-23 02:24:00,50.0,41.3,30.28,NNE,23,2.0,4.0,72,0.00,,,0.00,Wunderground v.1.15,2013-01-23 07:24:00,
2013-01-23 02:25:00,49.9,41.2,30.28,NE,38,3.0,4.0,72,0.00,,,0.00,Wunderground v.1.15,2013-01-23 07:25:00,
2013-01-23 02:27:00,49.9,41.2,30.29,NNE,27,3.0,4.0,72,0.00,,,0.00,Wunderground v.1.15,2013-01-23 07:27:00,
2013-01-23 02:29:00,49.9,41.2,30.29,NNE,13,3.0,4.0,72,0.00,,,0.00,Wunderground v.1.15,2013-01-23 07:29:00,
2013-01-23 02:30:00,49.9,41.2,30.29,NW,326,2.0,3.0,72,0.00,,,0.00,Wunderground v.1.15,2013-01-23 07:30:00,
2013-01-23 02:32:00,49.8,41.1,30.29,North,349,2.0,4.0,72,0.00,,,0.00,Wunderground v.1.15,2013-01-23 07:32:00,
2013-01-23 02:34:00,49.8,41.1,30.29,North,9,3.0,4.0,72,0.00,,,0.00,Wunderground v.1.15,2013-01-23 07:34:00,
2013-01-23 02:35:00,49.7,41.0,30.29,North,11,3.0,4.0,72,0.00,,,0.00,Wunderground v.1.15,2013-01-23 07:35:00,
2013-01-23 02:38:00,49.7,41.0,30.29,NNE,22,1.0,4.0,72,0.00,,,0.00,Wunderground v.1.15,2013-01-23 07:38:00,
2013-01-23 02:39:00,49.7,41.0,30.29,NNE,18,2.0,4.0,72,0.00,,,0.00,Wunderground v.1.15,2013-01-23 07:39:00,
2013-01-23 02:41:00,49.7,41.0,30.28,ENE,65,2.0,6.0,72,0.00,,,0.00,Wunderground v.1.15,2013-01-23 07:41:00,
2013-01-23 02:43:00,49.7,41.0,30.28,NE,45,2.0,6.0,72,0.00,,,0.00,Wunderground v.1.15,2013-01-23 07:43:00,
2013-01-23 02:44:00,49.7,41.0,30.28,NE,38,4.0,6.0,72,0.00,,,0.00,Wunderground v.1.15,2013-01-23 07:44:00,
2013-01-23 02:45:00,49.7,41.0,30.28,NE,50,6.0,7.0,72,0.00,,,0.00,Wunderground v.1.15,2013-01-23 07:45:00,
2013-01-23 02:46:00,49.7,41.0,30.28,NNE,27,4.0,7.0,72,0.00,,,0.00,Wunderground v.1.15,2013-01-23 07:46:00,
2013-01-23 02:48:00,49.8,41.1,30.28,NE,39,3.0,7.0,72,0.00,,,0.00,Wunderground v.1.15,2013-01-23 07:48:00,
2013-01-23 02:49:00,49.8,41.1,30.29,NNE,29,3.0,7.0,72,0.00,,,0.00,Wunderground v.1.15,2013-01-23 07:49:00,
2013-01-23 02:50:00,49.8,41.1,30.29,North,354,5.0,5.0,72,0.00,,,0.00,Wunderground v.1.15,2013-01-23 07:50:00,
2013-01-23 02:52:00,49.9,41.2,30.29,North,357,3.0,5.0,72,0.00,,,0.00,Wunderground v.1.15,2013-01-23 07:52:00,
2013-01-23 02:53:00,50.0,41.0,30.29,NE,37,1.0,5.0,71,0.00,,,0.00,Wunderground v.1.15,2013-01-23 07:53:00,
2013-01-23 02:54:00,50.0,41.0,30.29,NNE,33,2.0,5.0,71,0.00,,,0.00,Wunderground v.1.15,2013-01-23 07:54:00,
2013-01-23 02:55:00,50.0,41.0,30.29,NNE,27,2.0,5.0,71,0.00,,,0.00,Wunderground v.1.15,2013-01-23 07:55:00,
2013-01-23 02:57:00,50.0,41.0,30.29,ENE,60,2.0,5.0,71,0.00,,,0.00,Wunderground v.1.15,2013-01-23 07:57:00,
2013-01-23 02:58:00,50.0,41.0,30.28,NNE,29,2.0,5.0,71,0.00,,,0.00,Wunderground v.1.15,2013-01-23 07:58:00,
2013-01-23 02:59:00,50.0,41.0,30.28,NNE,30,1.0,5.0,71,0.00,,,0.00,Wunderground v.1.15,2013-01-23 07:59:00,
2013-01-23 03:00:00,50.0,41.0,30.28,North,7,2.0,3.0,71,0.00,,,0.00,Wunderground v.1.15,2013-01-23 08:00:00,
2013-01-23 03:02:00,50.0,41.0,30.29,NNE,33,2.0,3.0,71,0.00,,,0.00,Wunderground v.1.15,2013-01-23 08:02:00,
2013-01-23 03:04:00,49.9,40.9,30.29,NNE,32,2.0,4.0,71,0.00,,,0.00,Wunderground v.1.15,2013-01-23 08:04:00,
2013-01-23 03:05:00,49.9,40.9,30.29,NE,36,4.0,4.0,71,0.00,,,0.00,Wunderground v.1.15,2013-01-23 08:05:00,
2013-01-23 03:07:00,49.8,40.8,30.29,NE,41,2.0,4.0,71,0.00,,,0.00,Wunderground v.1.15,2013-01-23 08:07:00,
2013-01-23 03:09:00,49.8,41.1,30.29,NE,39,2.0,4.0,72,0.00,,,0.00,Wunderground v.1.15,2013-01-23 08:09:00,
2013-01-23 03:10:00,49.8,41.1,30.29,NE,38,2.0,4.0,72,0.00,,,0.00,Wunderground v.1.15,2013-01-23 08:10:00,
2013-01-23 03:12:00,49.7,41.0,30.29,NNE,30,2.0,5.0,72,0.00,,,0.00,Wunderground v.1.15,2013-01-23 08:12:00,
2013-01-23 03:14:00,49.7,41.0,30.29,NE,41,1.0,5.0,72,0.00,,,0.00,Wunderground v.1.15,2013-01-23 08:14:00,
2013-01-23 03:15:00,49.7,41.0,30.29,NNE,31,3.0,5.0,72,0.00,,,0.00,Wunderground v.1.15,2013-01-23 08:15:00,
2013-01-23 03:18:00,49.6,40.9,30.29,NNE,30,1.0,5.0,72,0.00,,,0.00,Wunderground v.1.15,2013-01-23 08:18:00,
2013-01-23 03:19:00,49.5,40.8,30.29,NNE,33,1.0,5.0,72,0.00,,,0.00,Wunderground v.1.15,2013-01-23 08:19:00,
2013-01-23 03:20:00,49.5,40.8,30.29,NNE,29,6.0,6.0,72,0.00,,,0.00,Wunderground v.1.15,2013-01-23 08:20:00,
2013-01-23 03:23:00,49.5,41.2,30.29,NNW,338,2.0,6.0,73,0.00,,,0.00,Wunderground v.1.15,2013-01-23 08:23:00,
2013-01-23 03:24:00,49.4,41.1,30.29,NNE,14,4.0,6.0,73,0.00,,,0.00,Wunderground v.1.15,2013-01-23 08:24:00,
2013-01-23 03:25:00,49.4,41.1,30.29,NNE,33,4.0,6.0,73,0.00,,,0.00,Wunderground v.1.15,2013-01-23 08:25:00,
2013-01-23 03:28:00,49.5,41.2,30.29,NE,49,2.0,6.0,73,0.00,,,0.00,Wunderground v.1.15,2013-01-23 08:28:00,
2013-01-23 03:29:00,49.5,41.2,30.29,NE,49,3.0,6.0,73,0.00,,,0.00,Wunderground v.1.15,2013-01-23 08:29:00,
2013-01-23 03:30:00,49.5,41.2,30.29,NE,37,4.0,6.0,73,0.00,,,0.00,Wunderground v.1.15,2013-01-23 08:30:00,
2013-01-23 03:33:00,49.6,40.9,30.29,NNE,33,2.0,6.0,72,0.00,,,0.00,Wunderground v.1.15,2013-01-23 08:33:00,
2013-01-23 03:34:00,49.6,40.9,30.29,NE,50,2.0,6.0,72,0.00,,,0.00,Wunderground v.1.15,2013-01-23 08:34:00,
2013-01-23 03:35:00,49.6,40.9,30.29,NNE,32,2.0,6.0,72,0.00,,,0.00,Wunderground v.1.15,2013-01-23 08:35:00,
2013-01-23 03:38:00,49.5,40.8,30.29,NE,38,2.0,6.0,72,0.00,,,0.00,Wunderground v.1.15,2013-01-23 08:38:00,
2013-01-23 03:40:00,49.5,40.8,30.29,NNE,16,3.0,3.0,72,0.00,,,0.00,Wunderground v.1.15,2013-01-23 08:40:00,
2013-01-23 03:43:00,49.4,40.7,30.29,ENE,60,3.0,4.0,72,0.00,,,0.00,Wunderground v.1.15,2013-01-23 08:43:00,
2013-01-23 03:45:00,49.4,40.7,30.29,NNE,28,2.0,4.0,72,0.00,,,0.00,Wunderground v.1.15,2013-01-23 08:45:00,
2013-01-23 03:48:00,49.3,41.0,30.30,ENE,60,2.0,6.0,73,0.00,,,0.00,Wunderground v.1.15,2013-01-23 08:48:00,
2013-01-23 03:50:00,49.2,40.9,30.30,NE,41,1.0,3.0,73,0.00,,,0.00,Wunderground v.1.15,2013-01-23 08:50:00,
2013-01-23 03:53:00,49.1,40.8,30.30,NNE,32,1.0,4.0,73,0.00,,,0.00,Wunderground v.1.15,2013-01-23 08:53:00,
2013-01-23 03:55:00,49.1,40.8,30.30,NNE,30,1.0,6.0,73,0.00,,,0.00,Wunderground v.1.15,2013-01-23 08:55:00,
2013-01-23 03:58:00,49.0,41.1,30.30,NNE,23,3.0,6.0,74,0.00,,,0.00,Wunderground v.1.15,2013-01-23 08:58:00,
2013-01-23 04:00:00,49.0,41.1,30.30,North,354,4.0,5.0,74,0.00,,,0.00,Wunderground v.1.15,2013-01-23 09:00:00,
2013-01-23 04:01:00,49.0,41.1,30.30,NNE,31,3.0,5.0,74,0.00,,,0.00,Wunderground v.1.15,2013-01-23 09:01:00,
2013-01-23 04:03:00,49.0,41.1,30.30,North,7,4.0,6.0,74,0.00,,,0.00,Wunderground v.1.15,2013-01-23 09:03:00,
2013-01-23 04:06:00,49.0,41.1,30.30,ENE,65,3.0,6.0,74,0.00,,,0.00,Wunderground v.1.15,2013-01-23 09:06:00,
2013-01-23 04:08:00,48.9,41.0,30.30,NE,49,4.0,6.0,74,0.00,,,0.00,Wunderground v.1.15,2013-01-23 09:08:00,
2013-01-23 04:11:00,48.9,41.0,30.30,NE,44,2.0,4.0,74,0.00,,,0.00,Wunderground v.1.15,2013-01-23 09:11:00,
2013-01-23 04:12:00,48.8,40.9,30.30,NE,56,2.0,6.0,74,0.00,,,0.00,Wunderground v.1.15,2013-01-23 09:12:00,
2013-01-23 04:14:00,48.8,40.9,30.31,NNE,18,3.0,6.0,74,0.00,,,0.00,Wunderground v.1.15,2013-01-23 09:14:00,
2013-01-23 04:16:00,48.8,40.9,30.31,NNW,338,4.0,6.0,74,0.00,,,0.00,Wunderground v.1.15,2013-01-23 09:16:00,
2013-01-23 04:17:00,48.8,40.9,30.31,NE,36,4.0,6.0,74,0.00,,,0.00,Wunderground v.1.15,2013-01-23 09:17:00,
2013-01-23 04:19:00,48.7,41.1,30.31,NNE,18,3.0,6.0,75,0.00,,,0.00,Wunderground v.1.15,2013-01-23 09:19:00,
2013-01-23 04:21:00,48.7,41.1,30.31,NE,38,2.0,3.0,75,0.00,,,0.00,Wunderground v.1.15,2013-01-23 09:21:00,
2013-01-23 04:22:00,48.7,41.1,30.31,NW,323,4.0,4.0,75,0.00,,,0.00,Wunderground v.1.15,2013-01-23 09:22:00,
2013-01-23 04:24:00,48.7,41.1,30.31,NNE,31,2.0,6.0,75,0.00,,,0.00,Wunderground v.1.15,2013-01-23 09:24:00,
2013-01-23 04:26:00,48.7,41.1,30.31,North,5,4.0,7.0,75,0.00,,,0.00,Wunderground v.1.15,2013-01-23 09:26:00,
2013-01-23 04:27:00,48.7,41.1,30.31,NE,46,3.0,7.0,75,0.00,,,0.00,Wunderground v.1.15,2013-01-23 09:27:00,
2013-01-23 04:29:00,48.7,41.1,30.30,NE,38,4.0,7.0,75,0.00,,,0.00,Wunderground v.1.15,2013-01-23 09:29:00,
2013-01-23 04:31:00,48.7,41.1,30.30,NE,41,1.0,6.0,75,0.00,,,0.00,Wunderground v.1.15,2013-01-23 09:31:00,
2013-01-23 04:32:00,48.7,41.1,30.30,NNE,25,4.0,6.0,75,0.00,,,0.00,Wunderground v.1.15,2013-01-23 09:32:00,
2013-01-23 04:33:00,48.7,41.1,30.30,NNE,19,5.0,6.0,75,0.00,,,0.00,Wunderground v.1.15,2013-01-23 09:33:00,
2013-01-23 04:34:00,48.7,41.1,30.30,NE,39,3.0,6.0,75,0.00,,,0.00,Wunderground v.1.15,2013-01-23 09:34:00,
2013-01-23 04:36:00,48.7,41.1,30.30,North,8,3.0,6.0,75,0.00,,,0.00,Wunderground v.1.15,2013-01-23 09:36:00,
2013-01-23 04:37:00,48.6,41.0,30.30,NNE,19,4.0,6.0,75,0.00,,,0.00,Wunderground v.1.15,2013-01-23 09:37:00,
2013-01-23 04:38:00,48.6,41.0,30.30,NE,55,3.0,6.0,75,0.00,,,0.00,Wunderground v.1.15,2013-01-23 09:38:00,
2013-01-23 04:39:00,48.6,41.0,30.30,NE,43,5.0,6.0,75,0.00,,,0.00,Wunderground v.1.15,2013-01-23 09:39:00,
2013-01-23 04:41:00,48.6,41.0,30.30,NNE,18,4.0,5.0,75,0.00,,,0.00,Wunderground v.1.15,2013-01-23 09:41:00,
2013-01-23 04:43:00,48.5,40.9,30.30,North,353,3.0,5.0,75,0.00,,,0.00,Wunderground v.1.15,2013-01-23 09:43:00,
2013-01-23 04:44:00,48.5,40.9,30.31,NNE,22,3.0,6.0,75,0.00,,,0.00,Wunderground v.1.15,2013-01-23 09:44:00,
2013-01-23 04:46:00,48.4,40.8,30.30,NE,39,3.0,6.0,75,0.00,,,0.00,Wunderground v.1.15,2013-01-23 09:46:00,
2013-01-23 04:48:00,48.4,41.2,30.30,NNE,14,3.0,6.0,76,0.00,,,0.00,Wunderground v.1.15,2013-01-23 09:48:00,
2013-01-23 04:49:00,48.3,41.1,30.30,North,8,6.0,6.0,76,0.00,,,0.00,Wunderground v.1.15,2013-01-23 09:49:00,
2013-01-23 04:52:00,48.3,41.1,30.30,NE,36,5.0,6.0,76,0.00,,,0.00,Wunderground v.1.15,2013-01-23 09:52:00,
2013-01-23 04:53:00,48.3,41.1,30.30,North,358,4.0,6.0,76,0.00,,,0.00,Wunderground v.1.15,2013-01-23 09:53:00,
2013-01-23 04:54:00,48.3,41.1,30.30,NE,44,2.0,6.0,76,0.00,,,0.00,Wunderground v.1.15,2013-01-23 09:54:00,
2013-01-23 04:57:00,48.2,41.0,30.30,NE,49,3.0,6.0,76,0.00,,,0.00,Wunderground v.1.15,2013-01-23 09:57:00,
2013-01-23 04:58:00,48.2,41.0,30.30,NNE,23,2.0,6.0,76,0.00,,,0.00,Wunderground v.1.15,2013-01-23 09:58:00,
2013-01-23 04:59:00,48.1,40.9,30.30,North,5,4.0,6.0,76,0.00,,,0.00,Wunderground v.1.15,2013-01-23 09:59:00,
2013-01-23 05:02:00,48.1,41.2,30.30,NNE,20,4.0,7.0,77,0.00,,,0.00,Wunderground v.1.15,2013-01-23 10:02:00,
2013-01-23 05:03:00,48.1,41.2,30.30,NNE,16,7.0,7.0,77,0.00,,,0.00,Wunderground v.1.15,2013-01-23 10:03:00,
2013-01-23 05:04:00,48.1,41.2,30.30,North,1,4.0,7.0,77,0.00,,,0.00,Wunderground v.1.15,2013-01-23 10:04:00,
2013-01-23 05:07:00,48.1,41.2,30.30,NNE,12,3.0,7.0,77,0.00,,,0.00,Wunderground v.1.15,2013-01-23 10:07:00,
2013-01-23 05:08:00,48.1,41.2,30.30,NE,39,4.0,7.0,77,0.00,,,0.00,Wunderground v.1.15,2013-01-23 10:08:00,
2013-01-23 05:09:00,48.1,41.2,30.31,ENE,60,3.0,7.0,77,0.00,,,0.00,Wunderground v.1.15,2013-01-23 10:09:00,
2013-01-23 05:13:00,48.0,41.1,30.31,NNE,25,2.0,5.0,77,0.00,,,0.00,Wunderground v.1.15,2013-01-23 10:13:00,
2013-01-23 05:15:00,48.0,41.1,30.31,NNE,18,2.0,5.0,77,0.00,,,0.00,Wunderground v.1.15,2013-01-23 10:15:00,
2013-01-23 05:18:00,48.0,41.1,30.31,NE,38,4.0,5.0,77,0.00,,,0.00,Wunderground v.1.15,2013-01-23 10:18:00,
2013-01-23 05:20:00,47.9,41.0,30.31,NNE,25,2.0,3.0,77,0.00,,,0.00,Wunderground v.1.15,2013-01-23 10:20:00,
2013-01-23 05:23:00,47.9,41.0,30.31,NNE,29,3.0,5.0,77,0.00,,,0.00,Wunderground v.1.15,2013-01-23 10:23:00,
2013-01-23 05:25:00,47.8,41.3,30.31,NE,41,3.0,5.0,78,0.00,,,0.00,Wunderground v.1.15,2013-01-23 10:25:00,
2013-01-23 05:28:00,47.7,41.2,30.31,NNE,29,4.0,5.0,78,0.00,,,0.00,Wunderground v.1.15,2013-01-23 10:28:00,
2013-01-23 05:29:00,47.7,41.2,30.31,NNE,29,4.0,5.0,78,0.00,,,0.00,Wunderground v.1.15,2013-01-23 10:29:00,
2013-01-23 05:30:00,47.7,41.2,30.32,NNE,31,4.0,4.0,78,0.00,,,0.00,Wunderground v.1.15,2013-01-23 10:30:00,
2013-01-23 05:33:00,47.6,41.1,30.32,NNE,25,1.0,5.0,78,0.00,,,0.00,Wunderground v.1.15,2013-01-23 10:33:00,
2013-01-23 05:34:00,47.6,41.1,30.32,NE,36,2.0,5.0,78,0.00,,,0.00,Wunderground v.1.15,2013-01-23 10:34:00,
2013-01-23 05:35:00,47.5,41.0,30.32,NNE,22,4.0,5.0,78,0.00,,,0.00,Wunderground v.1.15,2013-01-23 10:35:00,
2013-01-23 05:38:00,47.5,41.0,30.32,ENE,59,2.0,5.0,78,0.00,,,0.00,Wunderground v.1.15,2013-01-23 10:38:00,
2013-01-23 05:39:00,47.5,41.0,30.32,NW,323,2.0,5.0,78,0.00,,,0.00,Wunderground v.1.15,2013-01-23 10:39:00,
2013-01-23 05:40:00,47.4,40.9,30.32,NNE,31,2.0,3.0,78,0.00,,,0.00,Wunderground v.1.15,2013-01-23 10:40:00,
2013-01-23 05:41:00,47.4,40.9,30.32,NNE,32,1.0,3.0,78,0.00,,,0.00,Wunderground v.1.15,2013-01-23 10:41:00,
2013-01-23 05:44:00,47.4,40.9,30.32,NE,41,4.0,5.0,78,0.00,,,0.00,Wunderground v.1.15,2013-01-23 10:44:00,
2013-01-23 05:45:00,47.3,40.8,30.32,NNE,15,3.0,5.0,78,0.00,,,0.00,Wunderground v.1.15,2013-01-23 10:45:00,
2013-01-23 05:46:00,47.3,40.8,30.32,North,4,4.0,5.0,78,0.00,,,0.00,Wunderground v.1.15,2013-01-23 10:46:00,
2013-01-23 05:49:00,47.3,40.8,30.32,NNE,25,4.0,5.0,78,0.00,,,0.00,Wunderground v.1.15,2013-01-23 10:49:00,
2013-01-23 05:50:00,47.2,40.7,30.33,NNE,25,1.0,3.0,78,0.00,,,0.00,Wunderground v.1.15,2013-01-23 10:50:00,
2013-01-23 05:51:00,47.2,40.7,30.33,NNE,23,2.0,3.0,78,0.00,,,0.00,Wunderground v.1.15,2013-01-23 10:51:00,
2013-01-23 05:54:00,47.2,40.7,30.33,NNE,28,2.0,6.0,78,0.00,,,0.00,Wunderground v.1.15,2013-01-23 10:54:00,
2013-01-23 05:56:00,47.1,40.6,30.33,NE,36,3.0,6.0,78,0.00,,,0.00,Wunderground v.1.15,2013-01-23 10:56:00,
2013-01-23 05:59:00,47.1,40.6,30.33,NNE,12,2.0,6.0,78,0.00,,,0.00,Wunderground v.1.15,2013-01-23 10:59:00,
2013-01-23 06:01:00,47.0,40.5,30.33,NE,47,2.0,6.0,78,0.00,,,0.00,Wunderground v.1.15,2013-01-23 11:01:00,
2013-01-23 06:04:00,46.9,40.7,30.33,NE,37,2.0,6.0,79,0.00,,,0.00,Wunderground v.1.15,2013-01-23 11:04:00,
2013-01-23 06:07:00,46.9,40.7,30.33,NE,41,3.0,6.0,79,0.00,,,0.00,Wunderground v.1.15,2013-01-23 11:07:00,
2013-01-23 06:09:00,46.9,40.7,30.33,NNE,23,4.0,7.0,79,0.00,,,0.00,Wunderground v.1.15,2013-01-23 11:09:00,
2013-01-23 06:10:00,46.9,40.7,30.33,NNE,29,2.0,4.0,79,0.00,,,0.00,Wunderground v.1.15,2013-01-23 11:10:00,
2013-01-23 06:12:00,46.9,40.7,30.33,NNE,32,3.0,5.0,79,0.00,,,0.00,Wunderground v.1.15,2013-01-23 11:12:00,
2013-01-23 06:15:00,46.9,40.7,30.33,NW,319,3.0,6.0,79,0.00,,,0.00,Wunderground v.1.15,2013-01-23 11:15:00,
2013-01-23 06:17:00,46.9,40.7,30.33,NNE,13,3.0,6.0,79,0.00,,,0.00,Wunderground v.1.15,2013-01-23 11:17:00,
2013-01-23 06:20:00,46.9,40.4,30.33,NNE,18,5.0,5.0,78,0.00,,,0.00,Wunderground v.1.15,2013-01-23 11:20:00,
2013-01-23 06:22:00,46.9,40.4,30.33,NNE,13,3.0,6.0,78,0.00,,,0.00,Wunderground v.1.15,2013-01-23 11:22:00,
2013-01-23 06:25:00,46.9,40.4,30.33,NE,55,5.0,6.0,78,0.00,,,0.00,Wunderground v.1.15,2013-01-23 11:25:00,
2013-01-23 06:27:00,46.9,40.4,30.34,North,358,5.0,8.0,78,0.00,,,0.00,Wunderground v.1.15,2013-01-23 11:27:00,
2013-01-23 06:28:00,46.9,40.4,30.34,NNE,25,6.0,8.0,78,0.00,,,0.00,Wunderground v.1.15,2013-01-23 11:28:00,
2013-01-23 06:30:00,46.8,40.3,30.34,North,360,3.0,4.0,78,0.00,,,0.00,Wunderground v.1.15,2013-01-23 11:30:00,
2013-01-23 06:32:00,46.8,40.3,30.34,NNE,18,4.0,6.0,78,0.00,,,0.00,Wunderground v.1.15,2013-01-23 11:32:00,
2013-01-23 06:33:00,46.9,40.4,30.34,NE,49,2.0,6.0,78,0.00,,,0.00,Wunderground v.1.15,2013-01-23 11:33:00,
2013-01-23 06:35:00,46.8,40.3,30.34,NNE,20,4.0,6.0,78,0.00,,,0.00,Wunderground v.1.15,2013-01-23 11:35:00,
2013-01-23 06:36:00,46.8,40.3,30.34,NE,49,3.0,6.0,78,0.00,,,0.00,Wunderground v.1.15,2013-01-23 11:36:00,
2013-01-23 06:38:00,46.8,40.0,30.34,NW,319,3.0,6.0,77,0.00,,,0.00,Wunderground v.1.15,2013-01-23 11:38:00,
2013-01-23 06:40:00,46.8,40.0,30.34,ENE,61,3.0,4.0,77,0.00,,,0.00,Wunderground v.1.15,2013-01-23 11:40:00,
2013-01-23 06:41:00,46.8,40.0,30.34,NNE,25,4.0,4.0,77,0.00,,,0.00,Wunderground v.1.15,2013-01-23 11:41:00,
2013-01-23 06:43:00,46.7,39.9,30.34,NNE,23,3.0,4.0,77,0.00,,,0.00,Wunderground v.1.15,2013-01-23 11:43:00,
2013-01-23 06:45:00,46.7,39.9,30.34,NNE,31,2.0,6.0,77,0.00,,,0.00,Wunderground v.1.15,2013-01-23 11:45:00,
2013-01-23 06:47:00,46.7,39.9,30.34,NE,36,4.0,6.0,77,0.00,,,0.00,Wunderground v.1.15,2013-01-23 11:47:00,
2013-01-23 06:48:00,46.6,39.8,30.34,NE,39,4.0,6.0,77,0.00,,,0.00,Wunderground v.1.15,2013-01-23 11:48:00,
2013-01-23 06:50:00,46.6,39.8,30.34,NE,37,3.0,6.0,77,0.00,,,0.00,Wunderground v.1.15,2013-01-23 11:50:00,
2013-01-23 06:52:00,46.6,39.8,30.34,NE,49,4.0,6.0,77,0.00,,,0.00,Wunderground v.1.15,2013-01-23 11:52:00,
2013-01-23 06:53:00,46.5,39.7,30.34,NE,45,3.0,6.0,77,0.00,,,0.00,Wunderground v.1.15,2013-01-23 11:53:00,
2013-01-23 06:55:00,46.5,39.7,30.34,NE,56,3.0,6.0,77,0.00,,,0.00,Wunderground v.1.15,2013-01-23 11:55:00,
2013-01-23 06:58:00,46.5,39.7,30.34,NE,46,2.0,6.0,77,0.00,,,0.00,Wunderground v.1.15,2013-01-23 11:58:00,
2013-01-23 07:01:00,46.4,39.6,30.35,ENE,60,2.0,6.0,77,0.00,,,0.00,Wunderground v.1.15,2013-01-23 12:01:00,
2013-01-23 07:03:00,46.4,39.6,30.35,NE,38,4.0,6.0,77,0.00,,,0.00,Wunderground v.1.15,2013-01-23 12:03:00,
2013-01-23 07:04:00,46.4,39.6,30.35,NNE,19,2.0,6.0,77,0.00,,,0.00,Wunderground v.1.15,2013-01-23 12:04:00,
2013-01-23 07:06:00,46.4,39.6,30.35,North,352,4.0,7.0,77,0.00,,,0.00,Wunderground v.1.15,2013-01-23 12:06:00,
2013-01-23 07:08:00,46.4,39.6,30.35,NE,37,2.0,7.0,77,0.00,,,0.00,Wunderground v.1.15,2013-01-23 12:08:00,
2013-01-23 07:09:00,46.4,39.6,30.35,NNE,31,2.0,7.0,77,0.00,,,0.00,Wunderground v.1.15,2013-01-23 12:09:00,
2013-01-23 07:12:00,46.5,39.7,30.35,NNE,25,5.0,8.0,77,0.00,,,0.00,Wunderground v.1.15,2013-01-23 12:12:00,
2013-01-23 07:13:00,46.5,39.3,30.35,NE,36,5.0,8.0,76,0.00,,,0.00,Wunderground v.1.15,2013-01-23 12:13:00,
2013-01-23 07:14:00,46.5,39.3,30.35,NNE,23,3.0,8.0,76,0.00,,,0.00,Wunderground v.1.15,2013-01-23 12:14:00,
2013-01-23 07:17:00,46.6,39.4,30.35,NE,50,6.0,8.0,76,0.00,,,0.00,Wunderground v.1.15,2013-01-23 12:17:00,
2013-01-23 07:18:00,46.6,39.4,30.35,NNE,25,4.0,9.0,76,0.00,,,0.00,Wunderground v.1.15,2013-01-23 12:18:00,
2013-01-23 07:19:00,46.6,39.4,30.35,NNE,31,5.0,9.0,76,0.00,,,0.00,Wunderground v.1.15,2013-01-23 12:19:00,
2013-01-23 07:22:00,46.7,39.2,30.35,NNE,20,5.0,7.0,75,0.00,,,0.00,Wunderground v.1.15,2013-01-23 12:22:00,
2013-01-23 07:24:00,46.8,38.9,30.35,NNE,18,5.0,7.0,74,0.00,,,0.00,Wunderground v.1.15,2013-01-23 12:24:00,
2013-01-23 07:27:00,46.8,38.9,30.35,NE,41,4.0,10.0,74,0.00,,,0.00,Wunderground v.1.15,2013-01-23 12:27:00,
2013-01-23 07:29:00,46.9,39.0,30.35,ESE,115,4.0,11.0,74,0.00,,,0.00,Wunderground v.1.15,2013-01-23 12:29:00,
2013-01-23 07:32:00,47.0,38.8,30.35,NNE,33,6.0,8.0,73,0.00,,,0.00,Wunderground v.1.15,2013-01-23 12:32:00,
2013-01-23 07:34:00,47.0,38.8,30.35,NE,49,3.0,8.0,73,0.00,,,0.00,Wunderground v.1.15,2013-01-23 12:34:00,
2013-01-23 07:38:00,47.1,38.5,30.35,NE,55,2.0,10.0,72,0.00,,,0.00,Wunderground v.1.15,2013-01-23 12:38:00,
2013-01-23 07:39:00,47.1,38.5,30.36,NE,36,3.0,10.0,72,0.00,,,0.00,Wunderground v.1.15,2013-01-23 12:39:00,
2013-01-23 07:40:00,47.1,38.5,30.36,NNE,31,2.0,4.0,72,0.00,,,0.00,Wunderground v.1.15,2013-01-23 12:40:00,
2013-01-23 07:43:00,47.1,38.2,30.36,NE,55,4.0,7.0,71,0.00,,,0.00,Wunderground v.1.15,2013-01-23 12:43:00,
2013-01-23 07:44:00,47.1,38.2,30.36,NE,37,3.0,8.0,71,0.00,,,0.00,Wunderground v.1.15,2013-01-23 12:44:00,
2013-01-23 07:45:00,47.1,38.2,30.36,ENE,78,3.0,8.0,71,0.00,,,0.00,Wunderground v.1.15,2013-01-23 12:45:00,
2013-01-23 07:48:00,47.1,38.2,30.36,NE,50,7.0,10.0,71,0.00,,,0.00,Wunderground v.1.15,2013-01-23 12:48:00,
2013-01-23 07:49:00,47.2,38.3,30.36,NE,55,3.0,10.0,71,0.00,,,0.00,Wunderground v.1.15,2013-01-23 12:49:00,
2013-01-23 07:50:00,47.2,38.3,30.36,NE,51,2.0,7.0,71,0.00,,,0.00,Wunderground v.1.15,2013-01-23 12:50:00,
2013-01-23 07:53:00,47.2,38.3,30.36,NNE,12,8.0,9.0,71,0.00,,,0.00,Wunderground v.1.15,2013-01-23 12:53:00,
2013-01-23 07:54:00,47.2,38.3,30.36,ENE,60,3.0,9.0,71,0.00,,,0.00,Wunderground v.1.15,2013-01-23 12:54:00,
2013-01-23 07:55:00,47.2,38.3,30.36,NE,38,8.0,9.0,71,0.00,,,0.00,Wunderground v.1.15,2013-01-23 12:55:00,
2013-01-23 07:58:00,47.3,38.0,30.36,NE,36,8.0,9.0,70,0.00,,,0.00,Wunderground v.1.15,2013-01-23 12:58:00,
2013-01-23 07:59:00,47.3,38.0,30.36,NE,36,8.0,11.0,70,0.00,,,0.00,Wunderground v.1.15,2013-01-23 12:59:00,
2013-01-23 08:00:00,47.3,38.0,30.36,NNE,20,6.0,6.0,70,0.00,,,0.00,Wunderground v.1.15,2013-01-23 13:00:00,
2013-01-23 08:03:00,47.4,38.1,30.36,NNE,33,8.0,9.0,70,0.00,,,0.00,Wunderground v.1.15,2013-01-23 13:03:00,
2013-01-23 08:04:00,47.5,38.2,30.36,NNE,30,6.0,11.0,70,0.00,,,0.00,Wunderground v.1.15,2013-01-23 13:04:00,
2013-01-23 08:05:00,47.5,38.2,30.36,NE,37,7.0,11.0,70,0.00,,,0.00,Wunderground v.1.15,2013-01-23 13:05:00,
2013-01-23 08:08:00,47.5,37.8,30.36,NE,45,4.0,11.0,69,0.00,,,0.00,Wunderground v.1.15,2013-01-23 13:08:00,
2013-01-23 08:10:00,47.6,37.9,30.36,NNE,25,4.0,6.0,69,0.00,,,0.00,Wunderground v.1.15,2013-01-23 13:10:00,
2013-01-23 08:13:00,47.7,38.0,30.36,ENE,75,6.0,9.0,69,0.00,,,0.00,Wunderground v.1.15,2013-01-23 13:13:00,
2013-01-23 08:15:00,47.8,38.1,30.36,NNE,15,3.0,10.0,69,0.00,,,0.00,Wunderground v.1.15,2013-01-23 13:15:00,
2013-01-23 08:16:00,47.9,37.8,30.36,NE,45,3.0,10.0,68,0.00,,,0.00,Wunderground v.1.15,2013-01-23 13:16:00,
2013-01-23 08:19:00,48.1,38.0,30.36,NE,55,5.0,12.0,68,0.00,,,0.00,Wunderground v.1.15,2013-01-23 13:19:00,
2013-01-23 08:20:00,48.1,38.0,30.36,NNE,15,9.0,9.0,68,0.00,,,0.00,Wunderground v.1.15,2013-01-23 13:20:00,
2013-01-23 08:21:00,48.1,38.0,30.36,WNW,301,5.0,10.0,68,0.00,,,0.00,Wunderground v.1.15,2013-01-23 13:21:00,
2013-01-23 08:24:00,48.4,38.3,30.36,NNE,32,5.0,12.0,68,0.00,,,0.00,Wunderground v.1.15,2013-01-23 13:24:00,
2013-01-23 08:25:00,48.5,38.4,30.36,NNE,12,4.0,12.0,68,0.00,,,0.00,Wunderground v.1.15,2013-01-23 13:25:00,
2013-01-23 08:26:00,48.5,38.0,30.36,North,7,7.0,12.0,67,0.00,,,0.00,Wunderground v.1.15,2013-01-23 13:26:00,
2013-01-23 08:29:00,48.8,38.3,30.36,ENE,72,5.0,12.0,67,0.00,,,0.00,Wunderground v.1.15,2013-01-23 13:29:00,
2013-01-23 08:30:00,48.9,38.4,30.37,NE,37,7.0,7.0,67,0.00,,,0.00,Wunderground v.1.15,2013-01-23 13:30:00,
2013-01-23 08:31:00,49.0,38.5,30.37,ENE,60,3.0,7.0,67,0.00,,,0.00,Wunderground v.1.15,2013-01-23 13:31:00,
2013-01-23 08:34:00,49.3,38.4,30.36,ENE,63,6.0,8.0,66,0.00,,,0.00,Wunderground v.1.15,2013-01-23 13:34:00,
2013-01-23 08:36:00,49.4,38.1,30.37,NNE,19,4.0,9.0,65,0.00,,,0.00,Wunderground v.1.15,2013-01-23 13:36:00,
2013-01-23 08:39:00,49.8,38.5,30.37,NE,43,3.0,9.0,65,0.00,,,0.00,Wunderground v.1.15,2013-01-23 13:39:00,
2013-01-23 08:41:00,50.0,38.3,30.36,NE,47,4.0,6.0,64,0.00,,,0.00,Wunderground v.1.15,2013-01-23 13:41:00,
2013-01-23 08:44:00,50.3,37.8,30.37,NNE,25,5.0,10.0,62,0.00,,,0.00,Wunderground v.1.15,2013-01-23 13:44:00,
2013-01-23 08:46:00,50.4,38.3,30.37,NE,49,4.0,10.0,63,0.00,,,0.00,Wunderground v.1.15,2013-01-23 13:46:00,
2013-01-23 08:49:00,50.8,38.2,30.37,NNE,15,2.0,10.0,62,0.00,,,0.00,Wunderground v.1.15,2013-01-23 13:49:00,
2013-01-23 08:51:00,51.0,38.0,30.37,NNE,33,3.0,8.0,61,0.00,,,0.00,Wunderground v.1.15,2013-01-23 13:51:00,
2013-01-23 08:52:00,51.1,38.5,30.37,NE,41,5.0,8.0,62,0.00,,,0.00,Wunderground v.1.15,2013-01-23 13:52:00,
2013-01-23 08:54:00,51.4,38.0,30.37,NE,52,5.0,11.0,60,0.00,,,0.00,Wunderground v.1.15,2013-01-23 13:54:00,
2013-01-23 08:56:00,51.5,38.1,30.37,NE,46,7.0,11.0,60,0.00,,,0.00,Wunderground v.1.15,2013-01-23 13:56:00,
2013-01-23 08:57:00,51.6,38.2,30.37,ENE,58,5.0,11.0,60,0.00,,,0.00,Wunderground v.1.15,2013-01-23 13:57:00,
2013-01-23 08:59:00,51.9,38.4,30.37,NNE,23,2.0,11.0,60,0.00,,,0.00,Wunderground v.1.15,2013-01-23 13:59:00,
2013-01-23 09:01:00,52.1,38.2,30.38,NNE,33,3.0,7.0,59,0.00,,,0.00,Wunderground v.1.15,2013-01-23 14:01:00,
2013-01-23 09:02:00,52.2,38.3,30.38,NNE,30,5.0,7.0,59,0.00,,,0.00,Wunderground v.1.15,2013-01-23 14:02:00,
2013-01-23 09:04:00,52.6,38.7,30.38,NE,39,8.0,10.0,59,0.00,,,0.00,Wunderground v.1.15,2013-01-23 14:04:00,
2013-01-23 09:06:00,52.8,38.0,30.38,NNE,28,4.0,10.0,57,0.00,,,0.00,Wunderground v.1.15,2013-01-23 14:06:00,
2013-01-23 09:07:00,52.9,38.1,30.38,North,359,6.0,10.0,57,0.00,,,0.00,Wunderground v.1.15,2013-01-23 14:07:00,
2013-01-23 09:09:00,53.3,38.0,30.37,NE,56,3.0,5.0,56,0.00,,,0.00,Wunderground v.1.15,2013-01-23 14:09:00,
2013-01-23 09:11:00,53.5,37.7,30.37,NE,56,11.0,12.0,55,0.00,,,0.00,Wunderground v.1.15,2013-01-23 14:11:00,
2013-01-23 09:12:00,53.5,37.3,30.37,NE,47,9.0,12.0,54,0.00,,,0.00,Wunderground v.1.15,2013-01-23 14:12:00,
2013-01-23 09:14:00,53.8,37.5,30.38,NNE,29,10.0,12.0,54,0.00,,,0.00,Wunderground v.1.15,2013-01-23 14:14:00,
2013-01-23 09:17:00,54.0,37.7,30.38,North,11,9.0,12.0,54,0.00,,,0.00,Wunderground v.1.15,2013-01-23 14:17:00,
2013-01-23 09:19:00,54.2,37.4,30.37,ENE,60,3.0,6.0,53,0.00,,,0.00,Wunderground v.1.15,2013-01-23 14:19:00,
2013-01-23 09:22:00,54.6,37.3,30.37,NE,51,4.0,11.0,52,0.00,,,0.00,Wunderground v.1.15,2013-01-23 14:22:00,
2013-01-23 09:25:00,54.9,37.1,30.37,NE,52,8.0,14.0,51,0.00,,,0.00,Wunderground v.1.15,2013-01-23 14:25:00,
2013-01-23 09:27:00,55.0,36.7,30.37,NNW,347,4.0,14.0,50,0.00,,,0.00,Wunderground v.1.15,2013-01-23 14:27:00,
2013-01-23 09:30:00,55.2,36.9,30.37,NE,47,4.0,10.0,50,0.00,,,0.00,Wunderground v.1.15,2013-01-23 14:30:00,
2013-01-23 09:32:00,55.4,37.6,30.37,NNE,26,5.0,10.0,51,0.00,,,0.00,Wunderground v.1.15,2013-01-23 14:32:00,
2013-01-23 09:35:00,55.9,38.5,30.37,East,79,2.0,10.0,52,0.00,,,0.00,Wunderground v.1.15,2013-01-23 14:35:00,
2013-01-23 09:37:00,56.2,38.3,30.37,ENE,65,6.0,10.0,51,0.00,,,0.00,Wunderground v.1.15,2013-01-23 14:37:00,
2013-01-23 09:40:00,56.4,38.0,30.37,NNE,12,7.0,13.0,50,0.00,,,0.00,Wunderground v.1.15,2013-01-23 14:40:00,
2013-01-23 09:42:00,56.5,37.6,30.38,NNE,28,8.0,13.0,49,0.00,,,0.00,Wunderground v.1.15,2013-01-23 14:42:00,
2013-01-23 09:45:00,56.6,37.6,30.38,NE,34,4.0,13.0,49,0.00,,,0.00,Wunderground v.1.15,2013-01-23 14:45:00,
2013-01-23 09:47:00,56.7,37.2,30.38,NNE,23,7.0,13.0,48,0.00,,,0.00,Wunderground v.1.15,2013-01-23 14:47:00,
2013-01-23 09:48:00,56.6,37.1,30.38,NNE,23,6.0,13.0,48,0.00,,,0.00,Wunderground v.1.15,2013-01-23 14:48:00,
2013-01-23 09:50:00,56.8,37.8,30.38,NNE,26,6.0,7.0,49,0.00,,,0.00,Wunderground v.1.15,2013-01-23 14:50:00,
2013-01-23 09:52:00,57.1,38.1,30.38,NE,49,9.0,9.0,49,0.00,,,0.00,Wunderground v.1.15,2013-01-23 14:52:00,
2013-01-23 09:53:00,57.2,38.2,30.38,NNE,16,9.0,9.0,49,0.00,,,0.00,Wunderground v.1.15,2013-01-23 14:53:00,
2013-01-23 09:55:00,57.3,37.8,30.38,NNE,30,4.0,9.0,48,0.00,,,0.00,Wunderground v.1.15,2013-01-23 14:55:00,
2013-01-23 09:57:00,57.6,38.6,30.38,NE,41,7.0,12.0,49,0.00,,,0.00,Wunderground v.1.15,2013-01-23 14:57:00,
2013-01-23 09:58:00,57.6,38.6,30.38,NNE,31,4.0,12.0,49,0.00,,,0.00,Wunderground v.1.15,2013-01-23 14:58:00,
2013-01-23 10:00:00,57.6,37.5,30.38,NNE,25,6.0,11.0,47,0.00,,,0.00,Wunderground v.1.15,2013-01-23 15:00:00,
2013-01-23 10:03:00,57.5,37.4,30.38,NE,52,12.0,14.0,47,0.00,,,0.00,Wunderground v.1.15,2013-01-23 15:03:00,
2013-01-23 10:05:00,57.5,37.4,30.38,NNE,26,11.0,14.0,47,0.00,,,0.00,Wunderground v.1.15,2013-01-23 15:05:00,
2013-01-23 10:08:00,57.5,37.4,30.38,North,352,3.0,14.0,47,0.00,,,0.00,Wunderground v.1.15,2013-01-23 15:08:00,
2013-01-23 10:11:00,57.7,37.6,30.38,NNE,13,6.0,12.0,47,0.00,,,0.00,Wunderground v.1.15,2013-01-23 15:11:00,
2013-01-23 10:13:00,57.8,37.7,30.38,NNE,21,9.0,14.0,47,0.00,,,0.00,Wunderground v.1.15,2013-01-23 15:13:00,
2013-01-23 10:16:00,58.1,38.0,30.38,ENE,59,4.0,14.0,47,0.00,,,0.00,Wunderground v.1.15,2013-01-23 15:16:00,
2013-01-23 10:18:00,58.2,37.5,30.38,NE,49,4.0,14.0,46,0.00,,,0.00,Wunderground v.1.15,2013-01-23 15:18:00,
2013-01-23 10:21:00,58.4,38.2,30.38,North,351,2.0,9.0,47,0.00,,,0.00,Wunderground v.1.15,2013-01-23 15:21:00,
2013-01-23 10:23:00,58.6,37.9,30.38,NE,34,5.0,14.0,46,0.00,,,0.00,Wunderground v.1.15,2013-01-23 15:23:00,
2013-01-23 10:26:00,59.0,38.2,30.38,NNE,18,12.0,14.0,46,0.00,,,0.00,Wunderground v.1.15,2013-01-23 15:26:00,
2013-01-23 10:28:00,59.0,37.7,30.38,ENE,60,6.0,14.0,45,0.00,,,0.00,Wunderground v.1.15,2013-01-23 15:28:00,
2013-01-23 10:29:00,59.1,37.8,30.38,NE,44,8.0,14.0,45,0.00,,,0.00,Wunderground v.1.15,2013-01-23 15:29:00,
2013-01-23 10:31:00,59.3,37.9,30.38,NNE,31,6.0,10.0,45,0.00,,,0.00,Wunderground v.1.15,2013-01-23 15:31:00,
2013-01-23 10:33:00,59.4,38.0,30.38,NNW,337,4.0,11.0,45,0.00,,,0.00,Wunderground v.1.15,2013-01-23 15:33:00,
2013-01-23 10:34:00,59.5,38.1,30.38,ENE,70,1.0,11.0,45,0.00,,,0.00,Wunderground v.1.15,2013-01-23 15:34:00,
2013-01-23 10:37:00,59.8,37.8,30.38,NE,34,11.0,14.0,44,0.00,,,0.00,Wunderground v.1.15,2013-01-23 15:37:00,
2013-01-23 10:38:00,59.8,37.8,30.38,NNE,13,11.0,14.0,44,0.00,,,0.00,Wunderground v.1.15,2013-01-23 15:38:00,
2013-01-23 10:39:00,59.8,37.8,30.38,NNE,31,9.0,14.0,44,0.00,,,0.00,Wunderground v.1.15,2013-01-23 15:39:00,
2013-01-23 10:42:00,59.8,38.4,30.38,NE,46,3.0,10.0,45,0.00,,,0.00,Wunderground v.1.15,2013-01-23 15:42:00,
2013-01-23 10:43:00,59.9,38.5,30.38,North,6,6.0,10.0,45,0.00,,,0.00,Wunderground v.1.15,2013-01-23 15:43:00,
2013-01-23 10:44:00,60.0,38.6,30.38,NNE,23,8.0,10.0,45,0.00,,,0.00,Wunderground v.1.15,2013-01-23 15:44:00,
2013-01-23 10:47:00,60.3,38.9,30.38,NNE,27,11.0,11.0,45,0.00,,,0.00,Wunderground v.1.15,2013-01-23 15:47:00,
2013-01-23 10:48:00,60.3,38.9,30.38,North,352,7.0,14.0,45,0.00,,,0.00,Wunderground v.1.15,2013-01-23 15:48:00,
2013-01-23 10:49:00,60.3,38.9,30.38,NE,37,3.0,14.0,45,0.00,,,0.00,Wunderground v.1.15,2013-01-23 15:49:00,
2013-01-23 10:52:00,60.5,39.0,30.38,NNE,19,3.0,10.0,45,0.00,,,0.00,Wunderground v.1.15,2013-01-23 15:52:00,
2013-01-23 10:53:00,60.7,39.8,30.38,NE,47,7.0,10.0,46,0.00,,,0.00,Wunderground v.1.15,2013-01-23 15:53:00,
2013-01-23 10:54:00,60.9,39.4,30.38,NE,39,3.0,10.0,45,0.00,,,0.00,Wunderground v.1.15,2013-01-23 15:54:00,
2013-01-23 10:57:00,61.3,39.2,30.38,NNE,25,6.0,11.0,44,0.00,,,0.00,Wunderground v.1.15,2013-01-23 15:57:00,
2013-01-23 10:59:00,61.3,39.8,30.38,ENE,62,7.0,11.0,45,0.00,,,0.00,Wunderground v.1.15,2013-01-23 15:59:00,
2013-01-23 11:02:00,61.4,39.9,30.38,NE,53,6.0,9.0,45,0.00,,,0.00,Wunderground v.1.15,2013-01-23 16:02:00,
2013-01-23 11:04:00,61.6,40.0,30.38,NE,34,6.0,9.0,45,0.00,,,0.00,Wunderground v.1.15,2013-01-23 16:04:00,
2013-01-23 11:05:00,61.6,40.0,30.38,NE,39,2.0,9.0,45,0.00,,,0.00,Wunderground v.1.15,2013-01-23 16:05:00,
2013-01-23 11:07:00,61.9,39.7,30.37,NNE,15,7.0,10.0,44,0.00,,,0.00,Wunderground v.1.15,2013-01-23 16:07:00,
2013-01-23 11:09:00,62.0,39.8,30.38,NE,55,4.0,10.0,44,0.00,,,0.00,Wunderground v.1.15,2013-01-23 16:09:00,
2013-01-23 11:10:00,62.0,39.8,30.37,NNE,19,5.0,6.0,44,0.00,,,0.00,Wunderground v.1.15,2013-01-23 16:10:00,
2013-01-23 11:15:00,62.4,39.6,30.37,NNW,337,6.0,10.0,43,0.00,,,0.00,Wunderground v.1.15,2013-01-23 16:15:00,
2013-01-23 11:16:00,62.4,40.2,30.37,NE,44,3.0,10.0,44,0.00,,,0.00,Wunderground v.1.15,2013-01-23 16:16:00,
2013-01-23 11:17:00,62.5,40.3,30.37,NE,49,5.0,10.0,44,0.00,,,0.00,Wunderground v.1.15,2013-01-23 16:17:00,
2013-01-23 11:18:00,62.4,39.6,30.37,NE,43,7.0,10.0,43,0.00,,,0.00,Wunderground v.1.15,2013-01-23 16:18:00,
2013-01-23 11:21:00,62.3,39.5,30.37,ENE,60,5.0,6.0,43,0.00,,,0.00,Wunderground v.1.15,2013-01-23 16:21:00,
2013-01-23 11:22:00,62.3,40.7,30.37,ENE,60,4.0,6.0,45,0.00,,,0.00,Wunderground v.1.15,2013-01-23 16:22:00,
2013-01-23 11:23:00,62.4,40.2,30.36,NE,55,6.0,6.0,44,0.00,,,0.00,Wunderground v.1.15,2013-01-23 16:23:00,
2013-01-23 11:27:00,62.9,40.0,30.36,East,85,6.0,8.0,43,0.00,,,0.00,Wunderground v.1.15,2013-01-23 16:27:00,
2013-01-23 11:28:00,63.0,40.1,30.36,NE,44,8.0,8.0,43,0.00,,,0.00,Wunderground v.1.15,2013-01-23 16:28:00,
2013-01-23 11:30:00,63.1,40.2,30.36,NE,41,4.0,6.0,43,0.00,,,0.00,Wunderground v.1.15,2013-01-23 16:30:00,
2013-01-23 11:33:00,63.2,39.7,30.36,NNE,29,13.0,13.0,42,0.00,,,0.00,Wunderground v.1.15,2013-01-23 16:33:00,
2013-01-23 11:35:00,63.3,39.8,30.36,NE,55,6.0,13.0,42,0.00,,,0.00,Wunderground v.1.15,2013-01-23 16:35:00,
2013-01-23 11:36:00,63.3,40.4,30.36,NNW,340,3.0,13.0,43,0.00,,,0.00,Wunderground v.1.15,2013-01-23 16:36:00,
2013-01-23 11:39:00,63.8,40.3,30.36,NNE,18,10.0,13.0,42,0.00,,,0.00,Wunderground v.1.15,2013-01-23 16:39:00,
2013-01-23 11:41:00,63.8,40.3,30.35,North,352,5.0,7.0,42,0.00,,,0.00,Wunderground v.1.15,2013-01-23 16:41:00,
2013-01-23 11:46:00,63.9,39.7,30.35,North,10,10.0,12.0,41,0.00,,,0.00,Wunderground v.1.15,2013-01-23 16:46:00,
2013-01-23 11:47:00,64.0,39.8,30.35,NW,323,7.0,12.0,41,0.00,,,0.00,Wunderground v.1.15,2013-01-23 16:47:00,
2013-01-23 11:48:00,64.0,39.8,30.35,NNE,25,7.0,12.0,41,0.00,,,0.00,Wunderground v.1.15,2013-01-23 16:48:00,
2013-01-23 11:49:00,64.1,39.9,30.35,ENE,58,6.0,12.0,41,0.00,,,0.00,Wunderground v.1.15,2013-01-23 16:49:00,
2013-01-23 11:51:00,64.2,40.6,30.35,East,82,7.0,7.0,42,0.00,,,0.00,Wunderground v.1.15,2013-01-23 16:51:00,
2013-01-23 11:53:00,64.3,39.4,30.35,ENE,72,5.0,7.0,40,0.00,,,0.00,Wunderground v.1.15,2013-01-23 16:53:00,
2013-01-23 11:58:00,64.6,39.1,30.35,NNW,343,6.0,9.0,39,0.00,,,0.00,Wunderground v.1.15,2013-01-23 16:58:00,
2013-01-23 11:59:00,64.6,39.1,30.35,NNW,330,7.0,7.0,39,0.00,,,0.00,Wunderground v.1.15,2013-01-23 16:59:00,
2013-01-23 12:04:00,64.7,37.8,30.35,NE,34,11.0,12.0,37,0.00,,,0.00,Wunderground v.1.15,2013-01-23 17:04:00,
2013-01-23 12:05:00,64.7,38.5,30.35,NE,43,4.0,12.0,38,0.00,,,0.00,Wunderground v.1.15,2013-01-23 17:05:00,
2013-01-23 12:07:00,65.0,38.8,30.35,NNE,30,10.0,12.0,38,0.00,,,0.00,Wunderground v.1.15,2013-01-23 17:07:00,
2013-01-23 12:09:00,65.1,38.8,30.35,NE,51,9.0,12.0,38,0.00,,,0.00,Wunderground v.1.15,2013-01-23 17:09:00,
2013-01-23 12:12:00,64.8,37.9,30.34,NE,49,7.0,9.0,37,0.00,,,0.00,Wunderground v.1.15,2013-01-23 17:12:00,
2013-01-23 12:13:00,64.9,38.7,30.34,WNW,303,2.0,9.0,38,0.00,,,0.00,Wunderground v.1.15,2013-01-23 17:13:00,
2013-01-23 12:14:00,65.0,38.8,30.34,ENE,74,6.0,9.0,38,0.00,,,0.00,Wunderground v.1.15,2013-01-23 17:14:00,
2013-01-23 12:17:00,65.3,38.3,30.34,NE,44,5.0,12.0,37,0.00,,,0.00,Wunderground v.1.15,2013-01-23 17:17:00,
2013-01-23 12:18:00,65.2,38.3,30.34,NNE,25,6.0,12.0,37,0.00,,,0.00,Wunderground v.1.15,2013-01-23 17:18:00,
2013-01-23 12:19:00,65.1,38.2,30.34,North,7,16.0,16.0,37,0.00,,,0.00,Wunderground v.1.15,2013-01-23 17:19:00,
2013-01-23 12:22:00,65.3,39.0,30.34,SE,128,3.0,11.0,38,0.00,,,0.00,Wunderground v.1.15,2013-01-23 17:22:00,
2013-01-23 12:23:00,65.4,39.1,30.34,East,93,2.0,11.0,38,0.00,,,0.00,Wunderground v.1.15,2013-01-23 17:23:00,
2013-01-23 12:24:00,65.5,39.2,30.34,NE,47,2.0,11.0,38,0.00,,,0.00,Wunderground v.1.15,2013-01-23 17:24:00,
2013-01-23 12:27:00,66.2,39.1,30.33,NE,39,9.0,11.0,37,0.00,,,0.00,Wunderground v.1.15,2013-01-23 17:27:00,
2013-01-23 12:28:00,66.1,38.4,30.33,NE,51,8.0,11.0,36,0.00,,,0.00,Wunderground v.1.15,2013-01-23 17:28:00,
2013-01-23 12:29:00,66.1,38.4,30.33,NNE,27,10.0,12.0,36,0.00,,,0.00,Wunderground v.1.15,2013-01-23 17:29:00,
2013-01-23 12:33:00,65.9,38.9,30.33,ENE,69,9.0,10.0,37,0.00,,,0.00,Wunderground v.1.15,2013-01-23 17:33:00,
2013-01-23 12:34:00,66.0,39.0,30.33,NE,36,4.0,10.0,37,0.00,,,0.00,Wunderground v.1.15,2013-01-23 17:34:00,
2013-01-23 12:38:00,66.1,38.4,30.33,NNE,15,9.0,10.0,36,0.00,,,0.00,Wunderground v.1.15,2013-01-23 17:38:00,
2013-01-23 12:39:00,66.2,39.1,30.33,NNE,30,5.0,10.0,37,0.00,,,0.00,Wunderground v.1.15,2013-01-23 17:39:00,
2013-01-23 12:43:00,66.6,38.1,30.33,NNE,33,8.0,9.0,35,0.00,,,0.00,Wunderground v.1.15,2013-01-23 17:43:00,
2013-01-23 12:44:00,66.6,38.1,30.33,NNW,347,7.0,10.0,35,0.00,,,0.00,Wunderground v.1.15,2013-01-23 17:44:00,
2013-01-23 12:48:00,66.5,38.0,30.32,NE,43,7.0,12.0,35,0.00,,,0.00,Wunderground v.1.15,2013-01-23 17:48:00,
2013-01-23 12:49:00,66.4,37.9,30.32,NE,34,6.0,12.0,35,0.00,,,0.00,Wunderground v.1.15,2013-01-23 17:49:00,
2013-01-23 12:53:00,66.7,38.9,30.32,North,354,8.0,11.0,36,0.00,,,0.00,Wunderground v.1.15,2013-01-23 17:53:00,
2013-01-23 12:54:00,66.7,38.9,30.32,North,7,7.0,11.0,36,0.00,,,0.00,Wunderground v.1.15,2013-01-23 17:54:00,
2013-01-23 12:59:00,66.9,39.8,30.32,ENE,73,6.0,11.0,37,0.00,,,0.00,Wunderground v.1.15,2013-01-23 17:59:00,
2013-01-23 13:00:00,66.9,39.1,30.32,ENE,58,12.0,13.0,36,0.00,,,0.00,Wunderground v.1.15,2013-01-23 18:00:00,
2013-01-23 13:04:00,67.1,39.2,30.32,NNE,30,2.0,13.0,36,0.00,,,0.00,Wunderground v.1.15,2013-01-23 18:04:00,
2013-01-23 13:05:00,67.1,39.2,30.32,NE,39,7.0,13.0,36,0.00,,,0.00,Wunderground v.1.15,2013-01-23 18:05:00,
2013-01-23 13:09:00,67.4,39.5,30.31,NNW,336,5.0,13.0,36,0.00,,,0.00,Wunderground v.1.15,2013-01-23 18:09:00,
2013-01-23 13:10:00,67.4,38.8,30.31,NW,312,1.0,5.0,35,0.00,,,0.00,Wunderground v.1.15,2013-01-23 18:10:00,
2013-01-23 13:14:00,67.6,39.7,30.31,East,80,1.0,6.0,36,0.00,,,0.00,Wunderground v.1.15,2013-01-23 18:14:00,
2013-01-23 13:15:00,67.8,40.6,30.31,NNE,23,1.0,6.0,37,0.00,,,0.00,Wunderground v.1.15,2013-01-23 18:15:00,
2013-01-23 13:19:00,67.9,39.2,30.31,NE,51,4.0,6.0,35,0.00,,,0.00,Wunderground v.1.15,2013-01-23 18:19:00,
2013-01-23 13:20:00,67.9,39.9,30.31,WSW,246,2.0,4.0,36,0.00,,,0.00,Wunderground v.1.15,2013-01-23 18:20:00,
2013-01-23 13:21:00,67.9,39.9,30.31,North,356,3.0,4.0,36,0.00,,,0.00,Wunderground v.1.15,2013-01-23 18:21:00,
2013-01-23 13:25:00,68.7,39.9,30.30,North,1,2.0,8.0,35,0.00,,,0.00,Wunderground v.1.15,2013-01-23 18:25:00,
2013-01-23 13:26:00,68.8,40.0,30.30,NNW,331,1.0,8.0,35,0.00,,,0.00,Wunderground v.1.15,2013-01-23 18:26:00,
2013-01-23 13:30:00,68.8,39.3,30.30,ENE,65,5.0,9.0,34,0.00,,,0.00,Wunderground v.1.15,2013-01-23 18:30:00,
2013-01-23 13:31:00,68.6,39.8,30.30,NE,46,2.0,9.0,35,0.00,,,0.00,Wunderground v.1.15,2013-01-23 18:31:00,
2013-01-23 13:35:00,68.6,38.3,30.30,North,360,8.0,10.0,33,0.00,,,0.00,Wunderground v.1.15,2013-01-23 18:35:00,
2013-01-23 13:36:00,68.7,37.6,30.30,North,5,3.0,10.0,32,0.00,,,0.00,Wunderground v.1.15,2013-01-23 18:36:00,
2013-01-23 13:40:00,68.8,37.7,30.30,East,87,2.0,4.0,32,0.00,,,0.00,Wunderground v.1.15,2013-01-23 18:40:00,
2013-01-23 13:41:00,68.8,37.7,30.30,ESE,107,2.0,4.0,32,0.00,,,0.00,Wunderground v.1.15,2013-01-23 18:41:00,
2013-01-23 13:45:00,69.0,37.1,30.30,NNE,14,5.0,10.0,31,0.00,,,0.00,Wunderground v.1.15,2013-01-23 18:45:00,
2013-01-23 13:46:00,69.0,37.1,30.30,NNW,340,4.0,10.0,31,0.00,,,0.00,Wunderground v.1.15,2013-01-23 18:46:00,
2013-01-23 13:51:00,69.0,36.3,30.29,NNE,20,3.0,5.0,30,0.00,,,0.00,Wunderground v.1.15,2013-01-23 18:51:00,
2013-01-23 13:56:00,69.2,37.3,30.29,NNE,22,8.0,9.0,31,0.00,,,0.00,Wunderground v.1.15,2013-01-23 18:56:00,
2013-01-23 14:01:00,69.4,37.4,30.29,NNW,347,4.0,11.0,31,0.00,,,0.00,Wunderground v.1.15,2013-01-23 19:01:00,
2013-01-23 14:06:00,69.4,37.4,30.29,NW,307,4.0,11.0,31,0.00,,,0.00,Wunderground v.1.15,2013-01-23 19:06:00,
2013-01-23 14:07:00,69.4,37.4,30.29,WNW,283,5.0,11.0,31,0.00,,,0.00,Wunderground v.1.15,2013-01-23 19:07:00,
2013-01-23 14:11:00,69.0,40.2,30.29,NW,305,5.0,5.0,35,0.00,,,0.00,Wunderground v.1.15,2013-01-23 19:11:00,
2013-01-23 14:12:00,69.0,40.2,30.29,NW,319,5.0,6.0,35,0.00,,,0.00,Wunderground v.1.15,2013-01-23 19:12:00,
2013-01-23 14:16:00,68.8,40.0,30.28,NW,319,6.0,7.0,35,0.00,,,0.00,Wunderground v.1.15,2013-01-23 19:16:00,
2013-01-23 14:17:00,68.8,40.0,30.28,NW,320,4.0,7.0,35,0.00,,,0.00,Wunderground v.1.15,2013-01-23 19:17:00,
2013-01-23 14:21:00,68.6,39.1,30.28,West,263,3.0,6.0,34,0.00,,,0.00,Wunderground v.1.15,2013-01-23 19:21:00,
2013-01-23 14:22:00,68.6,39.1,30.28,West,269,2.0,6.0,34,0.00,,,0.00,Wunderground v.1.15,2013-01-23 19:22:00,
2013-01-23 14:27:00,69.1,40.3,30.28,NNW,335,4.0,7.0,35,0.00,,,0.00,Wunderground v.1.15,2013-01-23 19:27:00,
2013-01-23 14:28:00,69.2,40.4,30.29,WNW,302,6.0,10.0,35,0.00,,,0.00,Wunderground v.1.15,2013-01-23 19:28:00,
2013-01-23 14:32:00,68.7,39.2,30.28,WNW,298,7.0,11.0,34,0.00,,,0.00,Wunderground v.1.15,2013-01-23 19:32:00,
2013-01-23 14:33:00,68.6,38.3,30.28,WNW,296,6.0,11.0,33,0.00,,,0.00,Wunderground v.1.15,2013-01-23 19:33:00,
2013-01-23 14:37:00,68.7,39.2,30.28,WNW,289,3.0,11.0,34,0.00,,,0.00,Wunderground v.1.15,2013-01-23 19:37:00,
2013-01-23 14:38:00,68.7,39.2,30.28,NW,307,5.0,11.0,34,0.00,,,0.00,Wunderground v.1.15,2013-01-23 19:38:00,
2013-01-23 14:42:00,68.4,41.1,30.28,NW,315,1.0,11.0,37,0.00,,,0.00,Wunderground v.1.15,2013-01-23 19:42:00,
2013-01-23 14:43:00,68.5,41.2,30.28,NW,309,5.0,11.0,37,0.00,,,0.00,Wunderground v.1.15,2013-01-23 19:43:00,
2013-01-23 14:47:00,68.2,41.6,30.28,WNW,292,4.0,12.0,38,0.00,,,0.00,Wunderground v.1.15,2013-01-23 19:47:00,
2013-01-23 14:48:00,68.2,42.3,30.28,WNW,302,4.0,12.0,39,0.00,,,0.00,Wunderground v.1.15,2013-01-23 19:48:00,
2013-01-23 14:52:00,68.2,40.2,30.28,NW,323,6.0,11.0,36,0.00,,,0.00,Wunderground v.1.15,2013-01-23 19:52:00,
2013-01-23 14:53:00,68.3,40.3,30.28,NNW,333,4.0,11.0,36,0.00,,,0.00,Wunderground v.1.15,2013-01-23 19:53:00,
2013-01-23 14:57:00,67.9,39.2,30.28,NW,326,2.0,12.0,35,0.00,,,0.00,Wunderground v.1.15,2013-01-23 19:57:00,
2013-01-23 14:58:00,67.9,39.2,30.28,NW,321,2.0,12.0,35,0.00,,,0.00,Wunderground v.1.15,2013-01-23 19:58:00,
2013-01-23 14:59:00,67.9,39.2,30.28,West,276,5.0,12.0,35,0.00,,,0.00,Wunderground v.1.15,2013-01-23 19:59:00,
2013-01-23 15:02:00,67.9,37.7,30.28,West,274,7.0,12.0,33,0.00,,,0.00,Wunderground v.1.15,2013-01-23 20:02:00,
2013-01-23 15:03:00,67.9,37.7,30.28,NNW,347,6.0,13.0,33,0.00,,,0.00,Wunderground v.1.15,2013-01-23 20:03:00,
2013-01-23 15:04:00,67.9,37.7,30.28,WNW,285,6.0,13.0,33,0.00,,,0.00,Wunderground v.1.15,2013-01-23 20:04:00,
2013-01-23 15:07:00,67.7,38.3,30.28,NW,314,7.0,15.0,34,0.00,,,0.00,Wunderground v.1.15,2013-01-23 20:07:00,
2013-01-23 15:08:00,67.6,38.2,30.28,WNW,298,11.0,15.0,34,0.00,,,0.00,Wunderground v.1.15,2013-01-23 20:08:00,
2013-01-23 15:09:00,67.6,38.2,30.28,WNW,294,10.0,15.0,34,0.00,,,0.00,Wunderground v.1.15,2013-01-23 20:09:00,
2013-01-23 15:12:00,67.5,38.1,30.28,North,1,6.0,11.0,34,0.00,,,0.00,Wunderground v.1.15,2013-01-23 20:12:00,
2013-01-23 15:13:00,67.7,37.5,30.28,NNW,333,7.0,11.0,33,0.00,,,0.00,Wunderground v.1.15,2013-01-23 20:13:00,
2013-01-23 15:14:00,67.6,37.5,30.28,NW,326,5.0,11.0,33,0.00,,,0.00,Wunderground v.1.15,2013-01-23 20:14:00,
2013-01-23 15:17:00,67.8,37.6,30.28,WNW,301,8.0,12.0,33,0.00,,,0.00,Wunderground v.1.15,2013-01-23 20:17:00,
2013-01-23 15:18:00,67.7,38.3,30.28,WNW,295,8.0,12.0,34,0.00,,,0.00,Wunderground v.1.15,2013-01-23 20:18:00,
2013-01-23 15:19:00,67.7,38.3,30.28,NNW,327,5.0,12.0,34,0.00,,,0.00,Wunderground v.1.15,2013-01-23 20:19:00,
2013-01-23 15:22:00,67.6,39.7,30.28,NW,307,5.0,11.0,36,0.00,,,0.00,Wunderground v.1.15,2013-01-23 20:22:00,
2013-01-23 15:24:00,67.6,39.7,30.28,NNW,340,6.0,11.0,36,0.00,,,0.00,Wunderground v.1.15,2013-01-23 20:24:00,
2013-01-23 15:25:00,67.6,39.7,30.28,WNW,294,8.0,11.0,36,0.00,,,0.00,Wunderground v.1.15,2013-01-23 20:25:00,
2013-01-23 15:28:00,67.7,39.8,30.28,West,263,6.0,11.0,36,0.00,,,0.00,Wunderground v.1.15,2013-01-23 20:28:00,
2013-01-23 15:29:00,67.7,40.5,30.28,NW,313,5.0,11.0,37,0.00,,,0.00,Wunderground v.1.15,2013-01-23 20:29:00,
2013-01-23 15:30:00,67.7,41.2,30.28,NW,315,8.0,8.0,38,0.00,,,0.00,Wunderground v.1.15,2013-01-23 20:30:00,
2013-01-23 15:33:00,67.4,41.6,30.28,WNW,290,5.0,13.0,39,0.00,,,0.00,Wunderground v.1.15,2013-01-23 20:33:00,
2013-01-23 15:34:00,67.4,42.2,30.28,WNW,295,4.0,13.0,40,0.00,,,0.00,Wunderground v.1.15,2013-01-23 20:34:00,
2013-01-23 15:35:00,67.4,41.6,30.28,North,360,11.0,14.0,39,0.00,,,0.00,Wunderground v.1.15,2013-01-23 20:35:00,
2013-01-23 15:38:00,67.3,42.1,30.28,NNW,346,2.0,14.0,40,0.00,,,0.00,Wunderground v.1.15,2013-01-23 20:38:00,
2013-01-23 15:39:00,67.3,42.1,30.28,NW,304,5.0,14.0,40,0.00,,,0.00,Wunderground v.1.15,2013-01-23 20:39:00,
2013-01-23 15:40:00,67.4,42.2,30.28,WNW,284,8.0,9.0,40,0.00,,,0.00,Wunderground v.1.15,2013-01-23 20:40:00,
2013-01-23 15:44:00,67.3,42.1,30.28,WNW,284,10.0,12.0,40,0.00,,,0.00,Wunderground v.1.15,2013-01-23 20:44:00,
2013-01-23 15:45:00,67.2,42.0,30.28,WNW,289,4.0,12.0,40,0.00,,,0.00,Wunderground v.1.15,2013-01-23 20:45:00,
2013-01-23 15:46:00,67.2,42.7,30.28,WNW,295,7.0,12.0,41,0.00,,,0.00,Wunderground v.1.15,2013-01-23 20:46:00,
2013-01-23 15:49:00,66.9,41.8,30.28,WNW,298,5.0,14.0,40,0.00,,,0.00,Wunderground v.1.15,2013-01-23 20:49:00,
2013-01-23 15:50:00,66.8,41.7,30.28,NW,309,5.0,10.0,40,0.00,,,0.00,Wunderground v.1.15,2013-01-23 20:50:00,
2013-01-23 15:51:00,66.8,42.3,30.28,West,265,5.0,10.0,41,0.00,,,0.00,Wunderground v.1.15,2013-01-23 20:51:00,
2013-01-23 15:54:00,66.7,42.9,30.28,NNW,336,9.0,12.0,42,0.00,,,0.00,Wunderground v.1.15,2013-01-23 20:54:00,
2013-01-23 15:55:00,66.6,42.8,30.28,WNW,288,4.0,12.0,42,0.00,,,0.00,Wunderground v.1.15,2013-01-23 20:55:00,
2013-01-23 15:56:00,66.6,43.4,30.28,WNW,302,8.0,12.0,43,0.00,,,0.00,Wunderground v.1.15,2013-01-23 20:56:00,
2013-01-23 15:59:00,66.5,43.3,30.28,NW,307,5.0,12.0,43,0.00,,,0.00,Wunderground v.1.15,2013-01-23 20:59:00,
2013-01-23 16:00:00,66.5,43.3,30.28,WNW,284,6.0,9.0,43,0.00,,,0.00,Wunderground v.1.15,2013-01-23 21:00:00,
2013-01-23 16:01:00,66.5,43.9,30.28,WNW,292,7.0,9.0,44,0.00,,,0.00,Wunderground v.1.15,2013-01-23 21:01:00,
2013-01-23 16:04:00,66.5,44.5,30.28,NNW,333,5.0,9.0,45,0.00,,,0.00,Wunderground v.1.15,2013-01-23 21:04:00,
2013-01-23 16:05:00,66.5,45.1,30.28,NNW,337,9.0,9.0,46,0.00,,,0.00,Wunderground v.1.15,2013-01-23 21:05:00,
2013-01-23 16:06:00,66.5,45.1,30.28,NW,306,2.0,9.0,46,0.00,,,0.00,Wunderground v.1.15,2013-01-23 21:06:00,
2013-01-23 16:09:00,66.4,45.0,30.28,WNW,298,7.0,10.0,46,0.00,,,0.00,Wunderground v.1.15,2013-01-23 21:09:00,
2013-01-23 16:10:00,66.4,45.5,30.28,West,276,5.0,6.0,47,0.00,,,0.00,Wunderground v.1.15,2013-01-23 21:10:00,
2013-01-23 16:11:00,66.3,45.5,30.28,WNW,289,3.0,11.0,47,0.00,,,0.00,Wunderground v.1.15,2013-01-23 21:11:00,
2013-01-23 16:14:00,66.4,46.1,30.28,WNW,291,8.0,11.0,48,0.00,,,0.00,Wunderground v.1.15,2013-01-23 21:14:00,
2013-01-23 16:15:00,66.5,45.6,30.28,WNW,290,9.0,11.0,47,0.00,,,0.00,Wunderground v.1.15,2013-01-23 21:15:00,
2013-01-23 16:16:00,66.4,45.5,30.28,WNW,295,6.0,11.0,47,0.00,,,0.00,Wunderground v.1.15,2013-01-23 21:16:00,
2013-01-23 16:20:00,66.4,45.5,30.28,NNW,340,6.0,6.0,47,0.00,,,0.00,Wunderground v.1.15,2013-01-23 21:20:00,
2013-01-23 16:21:00,66.4,45.5,30.28,WNW,300,6.0,10.0,47,0.00,,,0.00,Wunderground v.1.15,2013-01-23 21:21:00,
2013-01-23 16:22:00,66.4,45.0,30.28,North,349,6.0,11.0,46,0.00,,,0.00,Wunderground v.1.15,2013-01-23 21:22:00,
2013-01-23 16:25:00,66.5,45.1,30.28,WNW,301,9.0,12.0,46,0.00,,,0.00,Wunderground v.1.15,2013-01-23 21:25:00,
2013-01-23 16:26:00,66.5,45.6,30.28,West,281,6.0,12.0,47,0.00,,,0.00,Wunderground v.1.15,2013-01-23 21:26:00,
2013-01-23 16:27:00,66.4,45.5,30.28,WNW,293,6.0,12.0,47,0.00,,,0.00,Wunderground v.1.15,2013-01-23 21:27:00,
2013-01-23 16:30:00,66.5,45.6,30.28,NW,323,10.0,10.0,47,0.00,,,0.00,Wunderground v.1.15,2013-01-23 21:30:00,
2013-01-23 16:31:00,66.5,45.6,30.28,WNW,297,13.0,14.0,47,0.00,,,0.00,Wunderground v.1.15,2013-01-23 21:31:00,
2013-01-23 16:32:00,66.3,46.0,30.28,WNW,293,4.0,14.0,48,0.00,,,0.00,Wunderground v.1.15,2013-01-23 21:32:00,
2013-01-23 16:35:00,66.2,45.9,30.28,WNW,295,7.0,14.0,48,0.00,,,0.00,Wunderground v.1.15,2013-01-23 21:35:00,
2013-01-23 16:36:00,66.2,45.9,30.28,WNW,291,9.0,14.0,48,0.00,,,0.00,Wunderground v.1.15,2013-01-23 21:36:00,
2013-01-23 16:37:00,66.1,46.4,30.28,WNW,301,3.0,14.0,49,0.00,,,0.00,Wunderground v.1.15,2013-01-23 21:37:00,
2013-01-23 16:40:00,66.1,46.4,30.28,WNW,288,8.0,9.0,49,0.00,,,0.00,Wunderground v.1.15,2013-01-23 21:40:00,
2013-01-23 16:41:00,66.0,46.3,30.28,NW,323,6.0,10.0,49,0.00,,,0.00,Wunderground v.1.15,2013-01-23 21:41:00,
2013-01-23 16:42:00,65.9,46.7,30.28,NW,313,6.0,10.0,50,0.00,,,0.00,Wunderground v.1.15,2013-01-23 21:42:00,
2013-01-23 16:45:00,65.8,46.6,30.28,NNE,12,4.0,10.0,50,0.00,,,0.00,Wunderground v.1.15,2013-01-23 21:45:00,
2013-01-23 16:46:00,65.8,47.2,30.28,NW,326,6.0,10.0,51,0.00,,,0.00,Wunderground v.1.15,2013-01-23 21:46:00,
2013-01-23 17:00:00,65.5,47.4,30.28,NW,319,4.0,4.0,52,0.00,,,0.00,Wunderground v.1.15,2013-01-23 22:00:00,
2013-01-23 17:05:00,65.2,48.1,30.29,NW,312,9.0,12.0,54,0.00,,,0.00,Wunderground v.1.15,2013-01-23 22:05:00,
2013-01-23 17:06:00,65.2,48.1,30.29,NNW,340,3.0,12.0,54,0.00,,,0.00,Wunderground v.1.15,2013-01-23 22:06:00,
2013-01-23 17:10:00,65.2,47.6,30.29,NNW,347,3.0,9.0,53,0.00,,,0.00,Wunderground v.1.15,2013-01-23 22:10:00,
2013-01-23 17:11:00,65.2,48.1,30.29,NW,326,1.0,9.0,54,0.00,,,0.00,Wunderground v.1.15,2013-01-23 22:11:00,
2013-01-23 17:15:00,65.1,48.0,30.29,WNW,300,5.0,10.0,54,0.00,,,0.00,Wunderground v.1.15,2013-01-23 22:15:00,
2013-01-23 17:16:00,65.1,48.5,30.29,WNW,295,6.0,10.0,55,0.00,,,0.00,Wunderground v.1.15,2013-01-23 22:16:00,
2013-01-23 17:20:00,65.1,49.0,30.29,WNW,285,7.0,7.0,56,0.00,,,0.00,Wunderground v.1.15,2013-01-23 22:20:00,
2013-01-23 17:21:00,65.1,49.0,30.29,WNW,291,8.0,8.0,56,0.00,,,0.00,Wunderground v.1.15,2013-01-23 22:21:00,
2013-01-23 17:25:00,64.9,48.8,30.29,NNW,343,8.0,8.0,56,0.00,,,0.00,Wunderground v.1.15,2013-01-23 22:25:00,
2013-01-23 17:26:00,64.9,48.8,30.29,NW,318,6.0,8.0,56,0.00,,,0.00,Wunderground v.1.15,2013-01-23 22:26:00,
2013-01-23 17:30:00,64.7,49.6,30.29,NW,308,4.0,7.0,58,0.00,,,0.00,Wunderground v.1.15,2013-01-23 22:30:00,
2013-01-23 17:31:00,64.7,49.6,30.29,WNW,299,3.0,7.0,58,0.00,,,0.00,Wunderground v.1.15,2013-01-23 22:31:00,
2013-01-23 17:36:00,64.5,49.8,30.29,WNW,285,2.0,8.0,59,0.00,,,0.00,Wunderground v.1.15,2013-01-23 22:36:00,
2013-01-23 17:41:00,64.2,49.6,30.29,NNW,329,5.0,7.0,59,0.00,,,0.00,Wunderground v.1.15,2013-01-23 22:41:00,
2013-01-23 17:42:00,64.1,49.5,30.29,WNW,302,4.0,7.0,59,0.00,,,0.00,Wunderground v.1.15,2013-01-23 22:42:00,
2013-01-23 17:46:00,64.0,49.8,30.29,NW,312,6.0,8.0,60,0.00,,,0.00,Wunderground v.1.15,2013-01-23 22:46:00,
2013-01-23 17:47:00,64.0,49.8,30.29,WNW,302,2.0,8.0,60,0.00,,,0.00,Wunderground v.1.15,2013-01-23 22:47:00,
2013-01-23 17:53:00,63.8,50.1,30.29,WNW,285,3.0,4.0,61,0.00,,,0.00,Wunderground v.1.15,2013-01-23 22:53:00,
2013-01-23 17:54:00,63.7,50.4,30.29,WNW,301,4.0,4.0,62,0.00,,,0.00,Wunderground v.1.15,2013-01-23 22:54:00,
2013-01-23 17:56:00,63.6,50.3,30.29,NW,318,4.0,4.0,62,0.00,,,0.00,Wunderground v.1.15,2013-01-23 22:56:00,
2013-01-23 17:59:00,63.4,50.6,30.29,NW,319,4.0,4.0,63,0.00,,,0.00,Wunderground v.1.15,2013-01-23 22:59:00,
2013-01-23 18:00:00,63.3,50.5,30.29,NW,309,1.0,3.0,63,0.00,,,0.00,Wunderground v.1.15,2013-01-23 23:00:00,
2013-01-23 18:01:00,63.3,50.5,30.29,NW,314,3.0,3.0,63,0.00,,,0.00,Wunderground v.1.15,2013-01-23 23:01:00,
2013-01-23 18:03:00,63.2,50.8,30.29,NW,305,3.0,3.0,64,0.00,,,0.00,Wunderground v.1.15,2013-01-23 23:03:00,
2013-01-23 18:06:00,63.0,50.6,30.29,NW,319,4.0,5.0,64,0.00,,,0.00,Wunderground v.1.15,2013-01-23 23:06:00,
2013-01-23 18:07:00,63.0,50.6,30.29,West,265,2.0,5.0,64,0.00,,,0.00,Wunderground v.1.15,2013-01-23 23:07:00,
2013-01-23 18:09:00,62.9,50.5,30.29,NW,318,3.0,5.0,64,0.00,,,0.00,Wunderground v.1.15,2013-01-23 23:09:00,
2013-01-23 18:12:00,62.9,50.5,30.29,NW,319,5.0,5.0,64,0.00,,,0.00,Wunderground v.1.15,2013-01-23 23:12:00,
2013-01-23 18:14:00,62.8,50.9,30.29,NW,305,2.0,5.0,65,0.00,,,0.00,Wunderground v.1.15,2013-01-23 23:14:00,
2013-01-23 18:15:00,62.8,50.9,30.29,NW,316,4.0,5.0,65,0.00,,,0.00,Wunderground v.1.15,2013-01-23 23:15:00,
2013-01-23 18:18:00,62.8,50.9,30.29,WNW,303,3.0,5.0,65,0.00,,,0.00,Wunderground v.1.15,2013-01-23 23:18:00,
2013-01-23 18:19:00,62.8,50.9,30.29,WNW,303,3.0,5.0,65,0.00,,,0.00,Wunderground v.1.15,2013-01-23 23:19:00,
2013-01-23 18:20:00,62.8,50.9,30.29,NW,317,7.0,7.0,65,0.00,,,0.00,Wunderground v.1.15,2013-01-23 23:20:00,
2013-01-23 18:23:00,62.6,51.1,30.30,WNW,289,3.0,7.0,66,0.00,,,0.00,Wunderground v.1.15,2013-01-23 23:23:00,
2013-01-23 18:24:00,62.6,51.5,30.30,North,349,3.0,7.0,67,0.00,,,0.00,Wunderground v.1.15,2013-01-23 23:24:00,
2013-01-23 18:25:00,62.5,51.4,30.30,WNW,301,2.0,7.0,67,0.00,,,0.00,Wunderground v.1.15,2013-01-23 23:25:00,
2013-01-23 18:29:00,62.3,51.2,30.30,NNW,335,2.0,8.0,67,0.00,,,0.00,Wunderground v.1.15,2013-01-23 23:29:00,
2013-01-23 18:30:00,62.2,51.5,30.30,NNW,343,6.0,6.0,68,0.00,,,0.00,Wunderground v.1.15,2013-01-23 23:30:00,